map of EXT home
EXT - Airport
Location
City:  Exeter, Devonshire, England, United Kingdom
Name:Exeter International Airport
ICAO:EGTE
IATA:EXT

Details
Type:Airport (Aerodrome, Airfield)
Use:Public/Civil, International (customs port of entry)
Latitude:5044'04"N (50.734444)
Longitude:324'50"W (-3.413888)
Datum:WGS 1984
Elevation:102 ft (31 m)
Variation:1.17W (WMM2015v2 magnetic declination)
0.19 annual change
Runways:2
Longest:6834 × 151 ft (2083 × 46 m), paved

Time
Time Zone:UTC+0 (DST+1)
Local Time:

Weather
METAR:EGTE 041350Z 27007KT 240V310 9999 FEW018 11/07 Q1016

Related Locations
Nearby:
Farthest:NZBA: 11993 mi / 19301 km
Balclutha, OTA, NZ

Find:

   beyond  
but within

Other Information
Maps:
NOTAMs:
Links:
Sources:

  
  • flag of United Kingdom
  • flag of England
  • flag of Devonshire
  

Sectional Chart

Flight Planning
at skyvector.com

Satellite Image

Google Maps Satellite view

 

Copyright © 2004-2019 Karl L. Swartz. All rights reserved.
The Great Circle Mapper name and logo are trademarks of the Great Circle Mapper.
All other trademarks mentioned herein belong to their respective owners.
Please see credits for attibutions and further copyright information.

  Follow gcmap on Facebook Follow gcmap on Twitter GCmap on LinkedIn

hCard Microformat

Geo Microformat